GW3114 Weather Reports


Display with metric or nautical units.
time (UTC)temp
F
wind
direction
speed
MPH
gust
MPH
rain 1hr
in
rain 24hr
in
rain mn
in
humidity
%
barometer
mb
20260506134503 60 176 0.0 1.0 0.05 0.17 0.17 99 1009.8
20260506133503 60 170 1.0 1.0 0.07 0.16 0.16 99 1009.7
20260506132502 60 179 2.0 3.0 0.12 0.15 0.15 99 1009.6
20260506131457 60 178 1.0 1.0 0.12 0.13 0.13 98 1010.1
20260506130456 60 148 2.0 3.0 0.24 0.11 0.11 98 1010.0
20260506125452 60 179 2.0 3.0 0.17 0.08 0.08 97 1010.3
20260506124447 60 176 2.0 2.0 0.00 0.05 0.05 96 1010.4
20260506123442 60 189 0.0 0.0 0.07 0.05 0.05 96 1009.9
20260506122442 60 190 0.0 1.0 0.00 0.04 0.04 96 1009.8
20260506121437 60 198 2.0 2.0 0.00 0.04 0.04 96 1009.5
20260506120432 60 133 2.0 2.0 0.12 0.04 0.04 95 1009.7
20260506115427 61 183 0.0 1.0 0.12 0.03 0.03 92 1010.1
20260506114422 62 203 1.0 2.0 0.07 0.01 0.01 88 1010.1
20260506113418 63 263 1.0 2.0 0.00 0.00 0.00 85 1010.2
20260506112418 63 187 4.0 6.0 0.00 0.00 0.00 83 1009.8
20260506111413 64 183 3.0 4.0 0.00 0.00 0.00 81 1009.7
20260506110414 64 180 2.0 2.0 0.00 0.00 0.00 79 1009.6
20260506105412 64 117 4.0 8.0 0.00 0.00 0.00 79 1009.4
20260506104407 64 202 2.0 2.0 0.00 0.00 0.00 80 1009.5
20260506103402 64 241 2.0 3.0 0.00 0.00 0.00 80 1009.0
20260506102357 64 174 2.0 2.0 0.00 0.00 0.00 79 1008.7
20260506101356 65 76 3.0 6.0 0.00 0.00 0.00 75 1009.2
20260506100352 65 180 2.0 3.0 0.00 0.00 0.00 75 1009.1
20260506095347 65 233 5.0 9.0 0.00 0.00 0.00 75 1009.0
20260506094343 66 145 5.0 8.0 0.00 0.00 0.00 74 1009.0
20260506093343 66 200 3.0 4.0 0.00 0.00 0.00 73 1009.1
20260506092339 66 159 2.0 3.0 0.00 0.00 0.00 73 1009.0
20260506091339 66 142 3.0 4.0 0.00 0.00 0.00 73 1009.5
20260506090339 66 209 6.0 9.0 0.00 0.00 0.00 72 1009.2
20260506085338 66 148 2.0 2.0 0.00 0.00 0.00 72 1009.2
20260506084338 66 142 7.0 10.0 0.00 0.00 0.00 71 1009.2
20260506083337 66 126 2.0 2.0 0.00 0.00 0.00 71 1009.3
20260506082337 67 228 6.0 8.0 0.00 0.00 0.00 70 1009.3
20260506081337 67 143 5.0 8.0 0.00 0.00 0.00 70 1009.3
20260506080337 67 141 3.0 3.0 0.00 0.00 0.00 69 1009.3
20260506073327 67 168 5.0 6.0 0.00 0.00 0.00 68 1009.3
20260506072327 68 250 2.0 3.0 0.00 0.00 0.00 67 1009.1
20260506071323 68 256 1.0 2.0 0.00 0.00 0.00 67 1009.4
20260506070322 68 179 5.0 7.0 0.00 0.00 0.00 66 1009.2
20260506062306 68 164 3.0 7.0 0.00 0.00 0.00 64 1010.1
20260506061304 68 174 1.0 2.0 0.00 0.00 0.00 63 1010.3
20260506060300 69 187 3.0 3.0 0.00 0.00 0.00 63 1010.1
20260506051249 70 201 3.0 4.0 0.00 0.00 0.00 59 1010.4
20260506050244 70 170 2.0 2.0 0.00 0.00 0.00 58 1010.4
20260506044243 70 187 1.0 1.0 0.00 0.00 0.00 59 1010.6
20260506043238 70 169 4.0 6.0 0.00 0.00 0.00 58 1010.6
20260506042235 70 179 2.0 3.0 0.00 0.00 0.00 57 1010.3
20260506041230 70 182 2.0 3.0 0.00 0.00 0.00 57 1010.6
20260506040230 70 224 0.0 0.0 0.00 0.00 0.00 56 1010.3
20260506035229 70 198 4.0 4.0 0.00 0.00 0.00 56 1010.7
20260506034229 70 166 2.0 2.0 0.00 0.00 0.00 55 1010.5
20260506033230 70 179 1.0 2.0 0.00 0.00 0.00 55 1010.5
20260506032229 70 212 1.0 1.0 0.00 0.00 0.00 54 1010.5
20260506031229 70 257 4.0 6.0 0.00 0.00 0.00 53 1010.5
20260506030224 70 230 2.0 3.0 0.00 0.00 0.00 52 1010.6
20260506025223 71 190 3.0 4.0 0.00 0.00 0.00 51 1010.5
20260506024223 71 192 3.0 6.0 0.00 0.00 0.00 50 1010.5
20260506023222 70 232 0.0 1.0 0.00 0.00 0.00 50 1010.7
20260506022217 71 211 1.0 1.0 0.00 0.00 0.00 49 1010.2
20260506021217 71 160 2.0 3.0 0.00 0.00 0.00 47 1010.5
20260506020212 71 159 0.0 1.0 0.00 0.00 0.00 48 1010.6
20260506015213 72 167 2.0 2.0 0.00 0.00 0.00 47 1010.5
20260506014211 72 161 1.0 2.0 0.00 0.00 0.00 46 1010.3
20260506013206 73 226 2.0 3.0 0.00 0.00 0.00 45 1010.3
20260506012204 72 233 1.0 2.0 0.00 0.00 0.00 45 1010.1
20260506011203 72 164 3.0 4.0 0.00 0.00 0.00 45 1010.0
20260506010159 73 183 2.0 3.0 0.00 0.00 0.00 43 1009.9
20260506005159 73 175 2.0 3.0 0.00 0.00 0.00 42 1009.8
20260506004158 74 198 1.0 2.0 0.00 0.00 0.00 42 1009.6
20260506003156 74 181 1.0 2.0 0.00 0.00 0.00 41 1009.5
20260506002154 74 220 2.0 2.0 0.00 0.00 0.00 41 1009.5
20260506001153 75 244 1.0 2.0 0.00 0.00 0.00 39 1009.4
20260506000148 76 161 2.0 3.0 0.00 0.00 0.00 38 1009.6
20260505235148 77 167 3.0 4.0 0.00 0.00 0.00 35 1009.2
20260505234148 78 150 4.0 7.0 0.00 0.00 0.00 34 1009.2
20260505233148 78 143 4.0 6.0 0.00 0.00 0.00 33 1009.0
20260505232143 79 174 6.0 10.0 0.00 0.00 0.00 32 1009.2
20260505231138 79 224 6.0 9.0 0.00 0.00 0.00 31 1009.0
20260505230138 80 319 5.0 10.0 0.00 0.00 0.00 31 1009.2
20260505225137 80 172 4.0 6.0 0.00 0.00 0.00 32 1009.1
20260505224137 80 201 4.0 7.0 0.00 0.00 0.00 33 1009.1
20260505223136 81 163 3.0 6.0 0.00 0.00 0.00 33 1009.3
20260505222134 80 196 3.0 4.0 0.00 0.00 0.00 33 1009.3
20260505221134 81 162 5.0 6.0 0.00 0.00 0.00 33 1009.3
20260505220129 80 227 4.0 4.0 0.00 0.00 0.00 34 1009.1
20260505215124 81 209 2.0 2.0 0.00 0.00 0.00 33 1009.1
20260505214119 82 149 4.0 8.0 0.00 0.00 0.00 32 1009.1
20260505213118 81 231 5.0 11.0 0.00 0.00 0.00 34 1009.2
20260505212118 82 147 2.0 3.0 0.00 0.00 0.00 34 1008.9
20260505211118 82 200 2.0 2.0 0.00 0.00 0.00 34 1008.9
20260505210117 82 232 3.0 3.0 0.00 0.00 0.00 34 1008.9
20260505205112 82 239 1.0 1.0 0.00 0.00 0.00 35 1009.0
20260505204107 82 163 9.0 17.0 0.00 0.00 0.00 33 1009.1
20260505203106 82 264 7.0 9.0 0.00 0.00 0.00 33 1008.9
20260505202104 82 149 6.0 9.0 0.00 0.00 0.00 32 1009.2
20260505201059 83 153 11.0 17.0 0.00 0.00 0.00 31 1009.2
20260505200059 83 186 2.0 4.0 0.00 0.00 0.00 33 1009.2
20260505195059 83 279 2.0 3.0 0.00 0.00 0.00 32 1009.1
20260505194057 83 195 6.0 10.0 0.00 0.00 0.00 31 1009.1
20260505193057 84 216 6.0 9.0 0.00 0.00 0.00 32 1009.2
20260505192053 84 141 4.0 6.0 0.00 0.00 0.00 33 1009.5
20260505191049 82 173 6.0 8.0 0.00 0.00 0.00 35 1009.6
20260505190046 84 208 2.0 4.0 0.00 0.00 0.00 36 1009.7
20260505185045 83 142 5.0 9.0 0.00 0.00 0.00 37 1010.0
20260505184044 82 191 9.0 11.0 0.00 0.00 0.00 39 1010.2
20260505183045 81 108 7.0 10.0 0.00 0.00 0.00 39 1010.3
20260505182043 82 209 4.0 7.0 0.00 0.00 0.00 40 1010.2
20260505181043 82 177 1.0 2.0 0.00 0.00 0.00 42 1010.4
20260505180043 81 156 4.0 7.0 0.00 0.00 0.00 44 1010.6
20260505175040 83 222 1.0 1.0 0.00 0.00 0.00 47 1010.6
20260505174039 81 180 4.0 6.0 0.00 0.00 0.00 43 1010.9
20260505173039 82 144 2.0 3.0 0.00 0.00 0.00 49 1010.7
20260505172038 82 151 6.0 7.0 0.00 0.00 0.00 40 1010.8
20260505171036 81 152 2.0 2.0 0.00 0.00 0.00 44 1011.0
20260505170035 84 211 1.0 1.0 0.00 0.00 0.00 40 1011.0
20260505165032 83 217 1.0 1.0 0.00 0.00 0.00 43 1011.2
20260505164032 81 175 2.0 3.0 0.00 0.00 0.00 43 1011.5
20260505163027 81 155 0.0 0.0 0.00 0.00 0.00 44 1011.3
20260505162023 80 268 2.0 3.0 0.00 0.00 0.00 43 1011.6
20260505161023 80 178 2.0 3.0 0.00 0.00 0.00 46 1011.8
20260505153014 77 111 4.0 6.0 0.00 0.00 0.00 51 1012.3
20260505152013 77 180 5.0 8.0 0.00 0.00 0.00 48 1012.3
20260505151011 76 199 1.0 1.0 0.00 0.00 0.00 53 1012.2